• In Russia
  • List of Countries
  • For 7 days
  • Water Temperature
  • Satellite Maps
  • Weather Map
  • Weather Widgets
  • user-avatar
    Login

    Hourly Weather Kugoty

    Today, 16 November, Friday

    Time Temperature Precipitation Wind Pressure Humidity
    00:00 -13°C° 0 mm 2 mps 700 mmHg 61%
    01:00 -13°C° 0 mm 2 mps 699 mmHg 61%
    02:00 -13°C° 0 mm 2 mps 699 mmHg 62%
    03:00 -13°C° 0 mm 2 mps 699 mmHg 63%
    04:00 -12°C° 0 mm 2 mps 699 mmHg 64%
    05:00 -13°C° 0 mm 2 mps 699 mmHg 67%
    06:00 -13°C° 0 mm 2 mps 699 mmHg 69%
    07:00 -13°C° 0 mm 2 mps 699 mmHg 72%
    08:00 -12°C° 0 mm 2 mps 699 mmHg 68%
    09:00 -9°C° 0 mm 2 mps 699 mmHg 64%
    10:00 -9°C° 0 mm 3 mps 699 mmHg 61%
    11:00 -8°C° 0 mm 3 mps 699 mmHg 59%
    12:00 -7°C° 0 mm 3 mps 699 mmHg 58%
    13:00 -6°C° 0 mm 3 mps 699 mmHg 57%
    14:00 -7°C° 0 mm 3 mps 699 mmHg 63%
    15:00 -8°C° 0 mm 2 mps 698 mmHg 69%
    16:00 -8°C° 0 mm 1 mps 698 mmHg 75%
    17:00 -8°C° 0 mm 1 mps 698 mmHg 75%
    18:00 -8°C° 0 mm 1 mps 698 mmHg 74%
    19:00 -8°C° 0 mm 1 mps 698 mmHg 74%
    20:00 -8°C° 0 mm 1 mps 698 mmHg 76%
    21:00 -8°C° 0 mm 1 mps 698 mmHg 77%
    22:00 -9°C° 0 mm 1 mps 698 mmHg 79%
    23:00 -9°C° 0 mm 1 mps 698 mmHg 81%

    Tomorrow, 17 November, Saturday

    Time Temperature Precipitation Wind Pressure Humidity
    00:00 -9°C° 0 mm 1 mps 698 mmHg 82%
    01:00 -9°C° 0 mm 1 mps 698 mmHg 84%
    02:00 -9°C° 0.2 mm 1 mps 699 mmHg 86%
    03:00 -9°C° 0.2 mm 2 mps 699 mmHg 89%
    04:00 -10°C° 0.2 mm 3 mps 699 mmHg 91%
    05:00 -12°C° 0.1 mm 3 mps 700 mmHg 88%
    06:00 -12°C° 0.1 mm 3 mps 700 mmHg 84%
    07:00 -13°C° 0.1 mm 3 mps 701 mmHg 81%
    08:00 -14°C° 0 mm 4 mps 701 mmHg 74%
    09:00 -14°C° 0 mm 4 mps 702 mmHg 67%
    10:00 -14°C° 0 mm 5 mps 702 mmHg 59%
    11:00 -14°C° 0 mm 5 mps 702 mmHg 57%
    12:00 -14°C° 0 mm 5 mps 702 mmHg 54%
    13:00 -14°C° 0 mm 5 mps 702 mmHg 52%
    14:00 -15°C° 0 mm 5 mps 702 mmHg 56%
    15:00 -16°C° 0 mm 4 mps 702 mmHg 61%
    16:00 -16°C° 0 mm 3 mps 702 mmHg 66%
    17:00 -17°C° 0 mm 3 mps 702 mmHg 70%
    18:00 -17°C° 0 mm 3 mps 703 mmHg 74%
    19:00 -17°C° 0 mm 2 mps 703 mmHg 78%
    20:00 -17°C° 0 mm 2 mps 703 mmHg 79%
    21:00 -17°C° 0 mm 2 mps 703 mmHg 80%
    22:00 -17°C° 0 mm 2 mps 703 mmHg 82%
    23:00 -18°C° 0 mm 2 mps 703 mmHg 84%

    Day after tomorrow, 18 November, Sunday

    Time Temperature Precipitation Wind Pressure Humidity
    00:00 -18°C° 0 mm 2 mps 702 mmHg 86%
    01:00 -18°C° 0 mm 2 mps 702 mmHg 88%
    02:00 -16°C° 0 mm 1 mps 702 mmHg 90%
    03:00 -17°C° 0 mm 1 mps 702 mmHg 91%
    04:00 -17°C° 0 mm 1 mps 701 mmHg 92%
    05:00 -17°C° 0 mm 1 mps 701 mmHg 92%
    06:00 -17°C° 0 mm 1 mps 701 mmHg 93%
    07:00 -17°C° 0 mm 1 mps 701 mmHg 93%
    08:00 -16°C° 0 mm 1 mps 701 mmHg 85%
    09:00 -15°C° 0 mm 1 mps 701 mmHg 77%
    10:00 -13°C° 0 mm 1 mps 701 mmHg 69%
    11:00 -13°C° 0 mm 1 mps 700 mmHg 66%
    12:00 -14°C° 0 mm 2 mps 700 mmHg 63%
    13:00 -13°C° 0 mm 2 mps 699 mmHg 60%
    14:00 -14°C° 0 mm 2 mps 699 mmHg 67%
    15:00 -13°C° 0 mm 1 mps 699 mmHg 74%
    16:00 -14°C° 0 mm 1 mps 698 mmHg 81%
    17:00 -15°C° 0 mm 1 mps 699 mmHg 84%
    18:00 -15°C° 0 mm 1 mps 699 mmHg 87%
    19:00 -16°C° 0 mm 0 mps 699 mmHg 90%
    20:00 -16°C° 0 mm 0 mps 699 mmHg 90%
    21:00 -16°C° 0 mm 0 mps 699 mmHg 91%
    22:00 -16°C° 0 mm 0 mps 699 mmHg 91%
    23:00 -17°C° 0 mm 1 mps 699 mmHg 92%

    19 November, Monday

    Time Temperature Precipitation Wind Pressure Humidity
    00:00 -17°C° 0 mm 1 mps 699 mmHg 92%
    01:00 -17°C° 0 mm 1 mps 699 mmHg 92%
    02:00 -17°C° 0 mm 1 mps 699 mmHg 93%
    03:00 -17°C° 0 mm 1 mps 699 mmHg 93%
    04:00 -17°C° 0 mm 1 mps 699 mmHg 93%
    05:00 -17°C° 0 mm 1 mps 699 mmHg 93%
    06:00 -17°C° 0 mm 1 mps 700 mmHg 94%
    07:00 -18°C° 0 mm 1 mps 700 mmHg 94%
    08:00 -16°C° 0 mm 1 mps 700 mmHg 86%
    09:00 -17°C° 0 mm 2 mps 700 mmHg 78%
    10:00 -15°C° 0 mm 2 mps 701 mmHg 70%
    11:00 -14°C° 0 mm 2 mps 701 mmHg 67%
    12:00 -15°C° 0 mm 3 mps 701 mmHg 64%
    13:00 -14°C° 0 mm 3 mps 701 mmHg 60%
    14:00 -15°C° 0 mm 3 mps 701 mmHg 67%
    15:00 -15°C° 0 mm 2 mps 701 mmHg 73%
    16:00 -16°C° 0 mm 2 mps 701 mmHg 80%
    17:00 -16°C° 0 mm 2 mps 701 mmHg 83%
    18:00 -15°C° 0 mm 1 mps 702 mmHg 86%
    19:00 -15°C° 0 mm 1 mps 702 mmHg 89%
    20:00 -16°C° 0 mm 1 mps 702 mmHg 90%
    21:00 -16°C° 0 mm 1 mps 702 mmHg 90%
    22:00 -16°C° 0 mm 1 mps 702 mmHg 91%
    23:00 -16°C° 0 mm 1 mps 702 mmHg 91%

    20 November, Tuesday

    Time Temperature Precipitation Wind Pressure Humidity
    00:00 -16°C° 0 mm 1 mps 702 mmHg 90%
    01:00 -16°C° 0 mm 1 mps 702 mmHg 90%
    02:00 -16°C° 0 mm 1 mps 702 mmHg 90%
    03:00 -16°C° 0 mm 1 mps 702 mmHg 90%
    04:00 -16°C° 0 mm 1 mps 701 mmHg 90%
    05:00 -18°C° 0 mm 2 mps 701 mmHg 90%
    06:00 -18°C° 0 mm 2 mps 701 mmHg 91%
    07:00 -18°C° 0 mm 2 mps 701 mmHg 91%
    08:00 -17°C° 0 mm 2 mps 701 mmHg 82%
    09:00 -15°C° 0 mm 2 mps 701 mmHg 73%
    10:00 -14°C° 0 mm 2 mps 701 mmHg 65%
    11:00 -13°C° 0 mm 2 mps 700 mmHg 60%
    12:00 -13°C° 0 mm 3 mps 700 mmHg 56%
    13:00 -10°C° 0 mm 3 mps 699 mmHg 52%
    14:00 -13°C° 0 mm 3 mps 698 mmHg 58%
    15:00 -13°C° 0 mm 2 mps 698 mmHg 65%
    16:00 -14°C° 0 mm 2 mps 697 mmHg 72%
    17:00 -14°C° 0 mm 2 mps 697 mmHg 75%
    18:00 -15°C° 0 mm 2 mps 697 mmHg 78%
    19:00 -15°C° 0 mm 2 mps 697 mmHg 80%
    20:00 -15°C° 0 mm 2 mps 696 mmHg 81%
    21:00 -13°C° 0 mm 1 mps 696 mmHg 81%
    22:00 -13°C° 0 mm 1 mps 695 mmHg 82%
    23:00 -13°C° 0 mm 1 mps 695 mmHg 82%

    21 November, Wednesday

    Time Temperature Precipitation Wind Pressure Humidity
    00:00 -13°C° 0 mm 1 mps 695 mmHg 82%
    01:00 -14°C° 0 mm 1 mps 694 mmHg 83%
    02:00 -14°C° 0 mm 1 mps 694 mmHg 84%
    03:00 -14°C° 0 mm 1 mps 694 mmHg 85%
    04:00 -15°C° 0 mm 1 mps 693 mmHg 87%
    05:00 -17°C° 0 mm 2 mps 693 mmHg 87%
    06:00 -17°C° 0 mm 2 mps 693 mmHg 86%
    07:00 -17°C° 0 mm 2 mps 693 mmHg 86%
    08:00 -15°C° 0 mm 2 mps 693 mmHg 78%
    09:00 -13°C° 0 mm 2 mps 693 mmHg 69%
    10:00 -12°C° 0 mm 2 mps 693 mmHg 60%
    11:00 -12°C° 0 mm 3 mps 692 mmHg 58%
    12:00 -10°C° 0 mm 3 mps 692 mmHg 55%
    13:00 -9°C° 0 mm 3 mps 691 mmHg 52%
    14:00 -10°C° 0 mm 3 mps 691 mmHg 57%
    15:00 -12°C° 0 mm 3 mps 691 mmHg 63%
    16:00 -12°C° 0 mm 2 mps 692 mmHg 68%
    17:00 -12°C° 0 mm 2 mps 692 mmHg 70%
    18:00 -12°C° 0 mm 2 mps 692 mmHg 73%
    19:00 -12°C° 0 mm 2 mps 692 mmHg 75%
    20:00 -12°C° 0 mm 2 mps 692 mmHg 76%
    21:00 -12°C° 0 mm 2 mps 692 mmHg 77%
    22:00 -12°C° 0 mm 2 mps 692 mmHg 79%
    23:00 -12°C° 0 mm 2 mps 692 mmHg 79%
    Show more